Location: Lowman
(44.0835°N, 115.6207°W)
Time: 08:08:59
(UTC+00:00)

Envisat - Pass Details

Date: 05 December 2022
Orbit: 763 x 765 km, 98.2° (Epoch: 07 February)

Event Time Altitude Azimuth Distance (km) Brightness Sun altitude
Rises 13:05:43 0° 2° (N) 3,244 6.1 -20.1°
Reaches altitude 10° 13:08:22 10° 349° (N) 2,313 5.3 -19.7°
Enters shadow 13:09:03 13° 344° (NNW) 2,103 5.0 -19.6°
